Santa Rosa, CA

2:14 PM PST on December 12, 2019 (GMT -0800)
Sonoma County

Weather History for KSTS - November, 2019

Change the Weather History Date:

Tuesday, November 12, 2019

  Actual Average Record
Temperature  
Mean Temperature 60 °F 53 °F  
Max Temperature 79 °F 66 °F 79 °F (2019)
Min Temperature 40 °F 41 °F 28 °F (2000)
Degree Days  
Heating Degree Days 5    
Month to date heating degree days 82  
Since 1 July heating degree days 284  
Cooling Degree Days 0    
Month to date cooling degree days 0  
Year to date cooling degree days 569  
Growing Degree Days 10 (Base 50)    
Moisture  
Dew Point 45 °F    
Average Humidity 64    
Maximum Humidity 96    
Minimum Humidity 32    
Precipitation  
Precipitation 0.00 in 0.13 in 2.05 in (2001)
Month to date precipitation 0.00 1.74  
Year to date precipitation 38.54 26.30  
Sea Level Pressure  
Sea Level Pressure 30.03 in    
Wind  
Wind Speed 1 mph (South)    
Max Wind Speed 6 mph    
Max Gust Speed 9 mph    
Visibility 10 miles    
Events      
T = Trace of Precipitation, MM = Missing Value Source: NWS Daily Summary

Daily Weather History Graph

Daily Weather History Graph

Search for Another Location

Airport or City:

Astronomy

Nov. 12, 2019 Rise Set
Actual Time 6:49 AM PST 5:00 PM PST
Civil Twilight 6:21 AM PST 5:28 PM PST
Nautical Twilight 5:49 AM PST 6:00 PM PST
Astronomical Twilight 5:18 AM PST 6:31 PM PST
Moon 5:30 PM PST 6:47 AM PST
Length of Visible Light 11h 07m
Length of Day
10h 11m
Full, 100% of the Moon is Illuminated
Nov 12
Full
Nov 19
Last Quarter
Nov 26
New
Dec 3
First Quarter
Dec 11
Full

Hourly Weather History & Observations

Time (PST) Temp. Dew Point Humidity Pressure Visibility Wind Dir Wind Speed Gust Speed Precip Events Conditions
12:53 AM 46.9 °F 42.1 °F 83% 30.04 in 10.0 mi Calm Calm - N/A   Clear
1:53 AM 46.9 °F 44.1 °F 90% 30.04 in 10.0 mi Calm Calm - N/A   Clear
2:53 AM 44.1 °F 41.0 °F 89% 30.04 in 10.0 mi Calm Calm - N/A   Clear
3:53 AM 44.1 °F 41.0 °F 89% 30.04 in 10.0 mi Calm Calm - N/A   Clear
4:53 AM 42.1 °F 39.9 °F 92% 30.04 in 10.0 mi Calm Calm - N/A   Clear
5:53 AM 42.1 °F 41.0 °F 96% 30.04 in 10.0 mi Calm Calm - N/A   Clear
6:53 AM 41.0 °F 39.9 °F 96% 30.06 in 9.0 mi Calm Calm - N/A   Scattered Clouds
7:53 AM 48.0 °F 44.1 °F 86% 30.08 in 10.0 mi Calm Calm - N/A   Scattered Clouds
8:53 AM 54.0 °F 46.0 °F 75% 30.09 in 10.0 mi Calm Calm - N/A   Mostly Cloudy
9:53 AM 61.0 °F 46.9 °F 60% 30.08 in 10.0 mi North 3.5 mph - N/A   Clear
10:53 AM 69.1 °F 46.9 °F 45% 30.07 in 10.0 mi Calm Calm - N/A   Overcast
11:53 AM 72.0 °F 46.9 °F 41% 30.06 in 10.0 mi SSE 4.6 mph - N/A   Clear
12:53 PM 73.9 °F 46.9 °F 38% 30.03 in 10.0 mi South 3.5 mph - N/A   Clear
1:53 PM 75.9 °F 45.0 °F 33% 30.01 in 10.0 mi SW 3.5 mph - N/A   Mostly Cloudy
2:53 PM 78.1 °F 46.0 °F 32% 29.99 in 10.0 mi Calm Calm - N/A   Mostly Cloudy
3:53 PM 78.1 °F 46.9 °F 33% 29.98 in 10.0 mi SSE 4.6 mph - N/A   Scattered Clouds
4:53 PM 73.0 °F 46.9 °F 39% 29.98 in 10.0 mi South 4.6 mph - N/A   Scattered Clouds
5:53 PM 64.9 °F 48.0 °F 54% 29.98 in 10.0 mi South 3.5 mph - N/A   Scattered Clouds
6:53 PM 62.1 °F 48.0 °F 60% 29.99 in 10.0 mi SSE 3.5 mph - N/A   Clear
7:53 PM 55.9 °F 46.9 °F 72% 29.99 in 10.0 mi South 3.5 mph - N/A   Clear
8:53 PM 51.1 °F 46.0 °F 83% 29.99 in 10.0 mi Calm Calm - N/A   Clear
9:53 PM 51.1 °F 46.0 °F 83% 30.00 in 10.0 mi Calm Calm - N/A   Clear
10:53 PM 48.9 °F 46.0 °F 90% 30.01 in 10.0 mi Calm Calm - N/A   Clear
11:53 PM 46.9 °F 44.1 °F 90% 30.00 in 10.0 mi Calm Calm - N/A   Clear